Date_and_time,latitude,longitude,wind_speed,RelWindDirFrom,WindDirFrom,air_pressure,air_temperature,relative_humidity,Temp,platform_speed_wrt_ground,air_pressure_at_mean_sea_level,platform_orientation
2019-11-18 23:40,50.630455,-96.9807683333333,11.0,13.3,162,973.58,0.5,99,1.27,0.0,1000.96,0.0
2019-11-18 23:50,50.630455,-96.98077,9.2,11.5,158,973.59,0.4,100,1.27,0.0,1000.98,0.0
2019-11-19 00:00,50.6304566666667,-96.98077,9.4,11.5,157,973.58,0.3,100,1.24,0.0,1000.99,270.0
2019-11-19 00:10,50.6304566666667,-96.98077,8.2,10.0,154,973.61,0.2,100,1.21,0.0,1001.03,270.0
2019-11-19 00:20,50.6304566666667,-96.98077,8.1,10.3,156,973.63,0.2,100,1.20,0.0,1001.06,270.0
2019-11-19 00:30,50.6304566666667,-96.9807716666667,8.3,10.9,155,973.60,0.3,100,1.20,0.0,1001.03,270.0
2019-11-19 00:40,50.6304566666667,-96.9807716666667,8.2,9.6,159,973.73,0.3,100,1.20,0.0,1001.17,270.0
2019-11-19 00:50,50.6304566666667,-96.98076,9.5,11.6,155,973.60,0.3,100,1.20,0.0,1001.04,270.0
2019-11-19 01:00,50.630465,-96.9807583333333,8.2,10.8,164,973.84,0.4,100,1.21,0.0,1001.27,360.0
2019-11-19 01:10,50.6304316666667,-96.9807533333333,7.0,9.1,165,973.94,0.4,100,1.21,0.0,1001.37,360.0
2019-11-19 01:20,50.6304633333333,-96.98076,5.2,6.8,157,974.08,0.4,100,1.21,0.0,1001.50,360.0
2019-11-19 01:30,50.630465,-96.98076,6.8,7.7,153,974.09,0.3,100,1.22,0.0,1001.53,360.0
2019-11-19 01:40,50.6304583333333,-96.98076,7.3,8.0,145,973.98,0.3,100,1.23,0.0,1001.42,360.0
2019-11-19 01:50,50.6304566666667,-96.9807616666667,8.5,10.0,142,973.84,0.3,100,1.23,0.0,1001.28,360.0
2019-11-19 02:00,50.630455,-96.98076,8.6,10.1,138,973.83,0.3,100,1.23,0.0,1001.27,90.0
2019-11-19 02:10,50.6304583333333,-96.9807583333333,8.4,9.0,140,973.84,0.3,100,1.23,0.0,1001.28,90.0
2019-11-19 02:20,50.63048,-96.9807616666667,7.5,9.2,149,973.88,0.3,100,1.23,0.0,1001.33,90.0
2019-11-19 02:30,50.6304683333333,-96.9807633333333,6.5,7.5,162,973.94,0.3,100,1.23,0.0,1001.38,90.0
2019-11-19 02:40,50.6304633333333,-96.980775,6.2,7.5,155,973.83,0.2,100,1.21,0.0,1001.27,90.0
2019-11-19 02:50,50.6304483333333,-96.98075,6.8,8.3,155,973.73,0.2,100,1.17,0.0,1001.17,90.0
2019-11-19 03:00,50.6304816666667,-96.980795,7.2,8.8,155,973.69,0.2,100,1.15,0.0,1001.13,320.5
2019-11-19 03:10,50.6304566666667,-96.9807716666667,6.8,8.2,148,973.76,0.2,100,1.13,0.0,1001.20,320.5
2019-11-19 03:20,50.630455,-96.98077,6.1,7.6,159,973.86,0.2,100,1.12,0.0,1001.30,320.5
2019-11-19 03:30,50.630455,-96.9807733333333,6.6,7.7,166,973.88,0.2,100,1.14,0.0,1001.32,320.5
2019-11-19 03:40,50.6304566666667,-96.9807716666667,6.4,7.5,166,973.90,0.2,100,1.15,0.0,1001.35,320.5
2019-11-19 03:50,50.6304633333333,-96.9807683333333,5.7,6.7,170,973.87,0.2,100,1.16,0.0,1001.32,320.5
2019-11-19 04:00,50.63046,-96.9807633333333,5.2,5.9,166,973.90,0.2,100,1.16,0.0,1001.34,194.5
2019-11-19 04:10,50.63046,-96.98076,4.2,5.1,173,973.96,0.3,100,1.16,0.0,1001.40,194.5
2019-11-19 04:20,50.63046,-96.9807633333333,3.4,4.1,178,973.88,0.3,100,1.15,0.0,1001.32,194.5
2019-11-19 04:30,50.6304633333333,-96.98075,3.0,4.0,162,973.92,0.2,100,1.16,0.0,1001.37,194.5
2019-11-19 04:40,50.63046,-96.9807483333333,2.7,3.2,174,973.92,0.2,100,1.16,0.0,1001.37,194.5
2019-11-19 04:50,50.63046,-96.980755,3.0,3.4,178,973.90,0.3,100,1.16,0.0,1001.34,194.5
2019-11-19 05:00,50.6304583333333,-96.9807583333333,3.1,3.7,154,973.93,0.3,100,1.17,0.0,1001.38,360.0
2019-11-19 05:10,50.6304533333333,-96.98075,4.2,4.7,151,973.99,0.2,100,1.18,0.0,1001.44,360.0
2019-11-19 05:20,50.630455,-96.980755,4.3,5.1,154,974.02,0.1,100,1.18,0.0,1001.48,360.0
2019-11-19 05:30,50.6304533333333,-96.98076,4.0,5.3,152,974.04,0.0,100,1.18,0.0,1001.51,360.0
2019-11-19 05:40,50.6304516666667,-96.98076,4.8,6.5,154,974.12,0.0,100,1.17,0.0,1001.58,360.0
2019-11-19 05:50,50.6304516666667,-96.9807683333333,4.9,5.8,188,974.21,0.1,100,1.17,0.0,1001.67,360.0
2019-11-19 06:00,50.6304516666667,-96.980765,4.3,5.0,193,974.33,0.2,100,1.18,0.0,1001.79,135.7
2019-11-19 06:10,50.6304533333333,-96.98077,3.9,4.7,186,974.40,0.3,100,1.19,0.0,1001.85,135.7
2019-11-19 06:20,50.630455,-96.9807733333333,3.1,3.7,205,974.51,0.5,100,1.19,0.0,1001.96,135.7
2019-11-19 06:30,50.63044,-96.9807666666667,3.1,3.7,220,974.58,0.8,100,1.19,0.0,1002.02,135.7
2019-11-19 06:40,50.630455,-96.980765,2.7,3.6,242,974.58,1.1,100,1.20,0.0,1002.00,135.7
2019-11-19 06:50,50.6304566666667,-96.9807633333333,3.1,5.2,260,974.63,1.4,100,1.20,0.0,1002.03,135.7
2019-11-19 07:00,50.630455,-96.9807666666667,2.9,4.7,284,974.68,1.7,100,1.18,0.0,1002.07,360.0
2019-11-19 07:10,50.630455,-96.980765,2.3,3.2,284,974.75,1.8,100,1.17,0.0,1002.15,360.0
2019-11-19 07:20,50.630455,-96.980765,2.6,3.6,278,974.81,1.8,100,1.18,0.0,1002.21,360.0
2019-11-19 07:30,50.6304566666667,-96.9807633333333,3.1,4.0,274,974.91,1.8,100,1.18,0.0,1002.32,360.0
2019-11-19 07:40,50.6304566666667,-96.9807633333333,3.8,6.2,282,975.00,2.0,100,1.17,0.0,1002.39,360.0
2019-11-19 07:50,50.6304566666667,-96.9807633333333,4.7,6.8,291,975.10,2.3,100,1.17,0.0,1002.48,360.0
2019-11-19 08:00,50.6304466666667,-96.9807466666667,4.9,6.8,302,975.12,2.5,100,1.17,0.0,1002.48,143.4
2019-11-19 08:10,50.6304483333333,-96.9807516666667,4.9,7.8,305,975.24,2.6,100,1.17,0.0,1002.59,143.4
2019-11-19 08:20,50.6304483333333,-96.9807466666667,5.2,7.9,301,975.33,2.6,100,1.17,0.0,1002.67,143.4
2019-11-19 08:30,50.6304483333333,-96.9807516666667,5.0,8.3,308,975.41,2.6,100,1.16,0.0,1002.73,143.4
2019-11-19 08:40,50.63045,-96.9807566666667,5.7,10.5,307,975.62,2.6,100,1.16,0.0,1002.93,143.4
2019-11-19 08:50,50.63045,-96.98076,5.8,9.7,309,975.78,2.6,100,1.15,0.0,1003.08,143.4
2019-11-19 09:00,50.63045,-96.98076,5.5,9.1,311,975.79,2.6,100,1.16,0.0,1003.09,90.0
2019-11-19 09:10,50.63045,-96.98076,6.2,8.4,308,975.82,2.5,100,1.16,0.0,1003.13,90.0
2019-11-19 09:20,50.6304516666667,-96.9807616666667,5.0,8.1,303,975.86,2.4,100,1.15,0.0,1003.17,90.0
2019-11-19 09:30,50.6304516666667,-96.9807633333333,6.1,9.3,297,975.91,2.4,100,1.14,0.0,1003.21,90.0
2019-11-19 09:40,50.6304516666667,-96.980765,5.1,7.6,296,976.02,2.4,100,1.14,0.0,1003.31,90.0
2019-11-19 09:50,50.630455,-96.9807566666667,5.0,7.4,296,976.16,2.3,100,1.14,0.0,1003.45,90.0
2019-11-19 10:00,50.630455,-96.980765,5.5,8.0,298,976.20,2.3,100,1.15,0.0,1003.48,0.0
2019-11-19 10:10,50.6304566666667,-96.9807666666667,6.1,9.0,290,976.26,2.3,100,1.15,0.0,1003.54,0.0
2019-11-19 10:20,50.630455,-96.9807683333333,5.8,9.6,293,976.33,2.2,100,1.12,0.0,1003.63,0.0
2019-11-19 10:30,50.6304566666667,-96.98077,6.4,9.3,291,976.39,2.2,100,1.09,0.0,1003.69,0.0
2019-11-19 10:40,50.6304583333333,-96.9807783333333,5.9,8.7,289,976.51,2.1,100,1.06,0.0,1003.81,0.0
2019-11-19 10:50,50.6304583333333,-96.9807766666667,5.7,9.4,290,976.57,2.1,100,1.05,0.0,1003.88,0.0
2019-11-19 11:00,50.630455,-96.980775,5.8,9.1,294,976.66,2.0,100,1.04,0.0,1003.98,286.8
2019-11-19 11:10,50.630455,-96.9807733333333,5.8,8.4,285,976.79,1.9,99,1.05,0.0,1004.12,286.8
2019-11-19 11:20,50.630455,-96.980775,5.7,9.4,283,976.87,1.8,99,1.06,0.0,1004.21,286.8
2019-11-19 11:30,50.6304383333333,-96.9807483333333,6.6,10.5,288,976.90,1.6,99,1.05,0.0,1004.25,286.8
2019-11-19 11:40,50.6304516666667,-96.9807683333333,6.2,10.8,291,977.05,1.5,99,1.03,0.0,1004.42,286.8
2019-11-19 11:50,50.6304516666667,-96.98077,5.1,7.5,288,977.23,1.4,99,1.02,0.0,1004.61,286.8
2019-11-19 12:00,50.63045,-96.98077,5.2,7.5,284,977.34,1.3,99,1.00,0.0,1004.73,270.0
2019-11-19 12:10,50.6304516666667,-96.9807733333333,5.0,7.8,287,977.46,1.2,99,0.97,0.0,1004.85,270.0
2019-11-19 12:20,50.630455,-96.98077,5.1,7.6,281,977.58,1.1,99,0.97,0.0,1004.98,270.0
2019-11-19 12:30,50.6304533333333,-96.980765,5.9,9.1,286,977.62,1.0,99,0.98,0.0,1005.03,270.0
2019-11-19 12:40,50.63045,-96.980765,5.9,9.0,290,977.72,0.9,99,0.99,0.0,1005.15,270.0
2019-11-19 12:50,50.63045,-96.980765,6.2,10.4,290,977.82,0.8,99,1.00,0.0,1005.26,270.0
2019-11-19 13:00,50.6304483333333,-96.9807816666667,4.6,7.7,287,977.94,0.7,100,0.99,0.0,1005.40,248.5
2019-11-19 13:10,50.6304316666667,-96.9807833333333,4.5,7.0,294,977.98,0.6,100,0.95,0.0,1005.45,248.5
2019-11-19 13:20,50.63045,-96.9807766666667,5.3,8.4,294,978.10,0.5,100,0.92,0.0,1005.57,248.5
2019-11-19 13:30,50.6304566666667,-96.9807666666667,4.9,7.5,289,978.15,0.5,100,0.92,0.0,1005.64,248.5
2019-11-19 13:40,50.6304583333333,-96.9807633333333,5.4,7.9,280,978.27,0.4,100,0.93,0.0,1005.77,248.5
2019-11-19 13:50,50.6304383333333,-96.980765,5.4,8.0,290,978.33,0.4,99,0.93,0.0,1005.85,248.5
2019-11-19 14:00,50.630455,-96.980765,5.8,8.8,290,978.49,0.3,99,0.94,0.0,1006.02,90.0
2019-11-19 14:10,50.6304566666667,-96.9807616666667,5.6,8.7,289,978.66,0.2,99,0.92,0.0,1006.20,90.0
2019-11-19 14:20,50.6304583333333,-96.980765,5.1,7.0,285,978.88,0.2,99,0.89,0.0,1006.43,90.0
2019-11-19 14:30,50.63046,-96.9807666666667,5.8,10.2,285,978.96,0.1,99,0.87,0.0,1006.52,90.0
2019-11-19 14:40,50.6304633333333,-96.9807566666667,6.1,10.3,283,979.13,0.1,99,0.85,0.0,1006.70,90.0
2019-11-19 14:50,50.6304483333333,-96.9807683333333,6.1,9.6,286,979.29,0.1,99,0.83,0.0,1006.87,90.0
2019-11-19 15:00,50.6304516666667,-96.9807683333333,7.1,10.2,294,979.32,0.1,99,0.83,0.0,1006.91,0.0
2019-11-19 15:10,50.6304533333333,-96.9807683333333,6.7,10.7,290,979.44,0.1,99,0.84,0.0,1007.03,0.0
2019-11-19 15:20,50.6304533333333,-96.9807666666667,5.8,10.1,296,979.63,0.1,99,0.85,0.0,1007.23,0.0
2019-11-19 15:30,50.6304533333333,-96.980765,5.8,9.6,294,979.74,0.1,99,0.86,0.0,1007.35,0.0
2019-11-19 15:40,50.6304516666667,-96.9807666666667,6.0,9.6,298,979.81,0.0,99,0.87,0.0,1007.43,0.0
2019-11-19 15:50,50.6304516666667,-96.9807666666667,5.6,8.1,290,979.99,0.0,99,0.87,0.0,1007.61,0.0
2019-11-19 16:00,50.6304516666667,-96.9807666666667,5.4,8.3,292,980.14,0.1,99,0.88,0.0,1007.76,66.4
2019-11-19 16:10,50.6304516666667,-96.9807833333333,6.4,8.9,290,980.22,0.3,96,0.88,0.0,1007.84,66.4
2019-11-19 16:20,50.630455,-96.9807716666667,6.0,9.5,296,980.26,0.4,95,0.88,0.0,1007.88,66.4
2019-11-19 16:30,50.6304383333333,-96.9807583333333,5.9,9.6,278,980.44,0.5,95,0.88,0.0,1008.07,66.4
2019-11-19 16:40,50.6304416666667,-96.98077,7.0,12.0,283,980.55,0.6,93,0.89,0.0,1008.17,66.4
2019-11-19 16:50,50.630445,-96.9807716666667,7.6,11.3,287,980.69,0.6,91,0.90,0.0,1008.32,66.4
2019-11-19 17:00,50.6304466666667,-96.9807716666667,7.3,11.6,294,980.88,0.6,90,0.90,0.0,1008.51,228.3
2019-11-19 17:10,50.6304466666667,-96.98077,7.7,11.5,288,980.89,0.7,89,0.89,0.0,1008.52,228.3
2019-11-19 17:20,50.6304483333333,-96.98077,9.2,13.0,294,980.90,0.7,87,0.89,0.0,1008.53,228.3
2019-11-19 17:30,50.6304466666667,-96.98077,9.7,12.6,300,980.90,0.8,86,0.88,0.0,1008.53,228.3
2019-11-19 17:40,50.630445,-96.98078,8.5,12.9,305,980.95,0.8,86,0.87,0.0,1008.57,228.3
2019-11-19 17:50,50.6304516666667,-96.9807766666667,8.2,13.0,299,981.06,0.8,87,0.87,0.0,1008.68,228.3
2019-11-19 18:00,50.6304483333333,-96.9807733333333,7.8,11.6,294,981.00,0.8,84,0.89,0.0,1008.62,192.6
2019-11-19 18:10,50.6304483333333,-96.980775,6.8,10.4,317,980.93,0.9,84,0.90,0.0,1008.53,192.6
2019-11-19 18:20,50.63045,-96.9807716666667,7.3,10.9,317,980.84,0.9,84,0.90,0.0,1008.44,192.6
2019-11-19 18:30,50.6304483333333,-96.9807716666667,7.2,11.1,295,980.96,0.9,85,0.89,0.0,1008.56,192.6
2019-11-19 18:40,50.630445,-96.9807733333333,7.0,11.6,294,981.22,0.9,86,0.90,0.0,1008.82,192.6
2019-11-19 18:50,50.6304466666667,-96.980765,7.6,11.4,304,981.37,0.8,85,0.90,0.0,1008.98,192.6
2019-11-19 19:00,50.6304433333333,-96.9807683333333,6.5,10.3,300,981.37,1.0,84,0.90,0.0,1008.97,360.0
2019-11-19 19:10,50.6304416666667,-96.9807633333333,7.2,10.9,311,981.48,1.1,84,0.91,0.0,1009.07,360.0
2019-11-19 19:20,50.63044,-96.9807666666667,6.8,10.6,299,981.70,1.0,84,0.91,0.0,1009.29,360.0
2019-11-19 19:30,50.6304416666667,-96.9807683333333,6.6,10.0,283,981.84,0.9,87,0.91,0.0,1009.44,360.0
2019-11-19 19:40,50.6304433333333,-96.98077,6.8,10.5,294,981.73,0.8,89,0.90,0.0,1009.34,360.0
2019-11-19 19:50,50.6304116666667,-96.9807566666667,5.8,8.9,305,981.77,0.8,88,0.91,0.0,1009.38,360.0
2019-11-19 20:00,50.63045,-96.9807233333333,6.5,9.4,300,981.94,0.8,86,0.91,0.0,1009.55,79.8
2019-11-19 20:10,50.63043,-96.9807733333333,6.1,9.1,289,982.02,0.8,88,0.92,0.0,1009.64,79.8
2019-11-19 20:20,50.6304333333333,-96.9807716666667,5.3,8.9,328,982.05,0.8,87,0.93,0.0,1009.66,79.8
2019-11-19 20:30,50.6304216666667,-96.9807683333333,4.8,7.9,341,982.09,0.9,87,0.94,0.0,1009.70,79.8
2019-11-19 20:40,50.630425,-96.980765,5.8,8.4,330,982.09,0.9,85,0.94,0.0,1009.70,79.8
2019-11-19 20:50,50.630425,-96.9807633333333,5.9,7.6,339,982.27,0.9,85,0.94,0.0,1009.88,79.8
2019-11-19 21:00,50.630425,-96.9807633333333,5.4,7.4,336,982.30,0.9,86,0.93,0.0,1009.90,152.4
2019-11-19 21:10,50.6304366666667,-96.98078,5.5,7.2,329,982.45,0.9,85,0.92,0.0,1010.06,152.4
2019-11-19 21:20,50.630435,-96.9807683333333,5.2,7.8,328,982.61,0.9,85,0.91,0.0,1010.23,152.4
2019-11-19 21:30,50.6304316666667,-96.9807683333333,5.1,6.8,316,982.68,0.9,85,0.91,0.0,1010.31,152.4
2019-11-19 21:40,50.6304283333333,-96.9807666666667,4.5,6.7,323,982.80,0.9,85,0.91,0.0,1010.44,152.4
2019-11-19 21:50,50.6304133333333,-96.9808016666667,5.0,7.0,327,982.98,0.9,86,0.91,0.0,1010.62,152.4
2019-11-19 22:00,50.630425,-96.9807783333333,5.3,7.5,327,983.14,0.8,87,0.91,0.0,1010.79,228.3
2019-11-19 22:10,50.6304283333333,-96.9807733333333,6.3,8.3,337,983.20,0.7,88,0.91,0.0,1010.85,228.3
2019-11-19 22:20,50.6304283333333,-96.98077,4.9,6.3,341,983.19,0.6,90,0.90,0.0,1010.85,228.3
2019-11-19 22:30,50.6304283333333,-96.9807716666667,4.7,6.6,337,983.25,0.6,89,0.91,0.0,1010.91,228.3
2019-11-19 22:40,50.630435,-96.980795,4.7,7.6,328,983.42,0.6,89,0.91,0.0,1011.08,228.3
2019-11-19 22:50,50.63043,-96.9807916666667,4.7,6.7,332,983.53,0.5,89,0.91,0.0,1011.19,228.3
2019-11-19 23:00,50.63043,-96.98079,3.8,5.7,332,983.60,0.5,89,0.92,0.0,1011.27,237.0
2019-11-19 23:10,50.63043,-96.9807883333333,3.6,5.6,326,983.73,0.5,88,0.92,0.0,1011.40,237.0
2019-11-19 23:20,50.63043,-96.9807866666667,3.9,5.2,330,983.77,0.4,89,0.93,0.0,1011.45,237.0
2019-11-19 23:30,50.63043,-96.9807866666667,4.4,6.0,330,983.83,0.4,89,0.92,0.0,1011.51,237.0
2019-11-19 23:40,50.6304316666667,-96.980785,3.9,5.3,324,983.98,0.4,89,0.93,0.0,1011.67,237.0
2019-11-19 23:50,50.6304333333333,-96.980785,3.7,5.3,322,984.14,0.3,90,0.93,0.0,1011.84,237.0
